Regional Weather Roundup
Issued by NWS

Home | Current Version | Previous Version | Graphics & Text | Print | Product List | Glossary On
Versions: 1 2 3 4 5 6 7 8 9 10 11 12 13 14 15 16 17 18 19 20 21 22 23 24 25 26 27 28 29 30 31 32 33 34 35 36 37 38 39 40 41 42 43 44 45 46 47 48 49 50
160
ASUS43 KLMK 222110
RWRKY
KENTUCKY REGIONAL WEATHER ROUNDUP
NATIONAL WEATHER SERVICE LOUISVILLE KY
500 PM EDT TUE AUG 22 2017

NOTE "FAIR" INDICATES FEW OR NO CLOUDS BELOW 12,000 FEET
WITH NO SIGNIFICANT WEATHER AND/OR OBSTRUCTIONS TO VISIBILITY.

KYZ001>023-026-027-061>063-070>075-222200-
WESTERN AND SOUTH CENTRAL KENTUCKY

CITY           SKY/WX    TMP DP  RH WIND       PRES   REMARKS
PADUCAH        CLOUDY    77  70  79 N6        29.96F
HENDERSON      NOT AVBL
OWENSBORO      TSTM      74  73  97 W5        29.96S
HOPKINSVILLE   MOSUNNY   88  72  58 W13       29.92S HX  94
BOWLING GREEN  CLOUDY    89  71  55 W13       29.94R HX  95
GLASGOW        PTSUNNY   87  69  54 SW7       29.95R HX  92
$$

KYZ024-025-028>034-038-045-046-053-222200-
NORTH CENTRAL KENTUCKY

CITY           SKY/WX    TMP DP  RH WIND       PRES   REMARKS
LOUISVILLE/SDF TSTM      74  72  93 NW14      29.94R FOG
LOUISVILLE/LOU HVY RAIN  73  72  96 NW9G28    29.95R VSB 1/2
FORT KNOX      TSTM      73  68  83 W16G40    29.92R
$$

KYZ035>037-039>044-047>052-055>060-089>105-222200-
NORTHEAST KENTUCKY

CITY           SKY/WX    TMP DP  RH WIND       PRES   REMARKS
LEXINGTON      CLOUDY    86  73  65 S12       29.92F HX  93
COVINGTON      CLOUDY    78  69  73 W12       29.92S
FRANKFORT      CLOUDY    86  70  58 W10       29.90F HX  90
$$

KYZ054-064>069-076>088-106>120-222200-
SOUTHEAST KENTUCKY

CITY           SKY/WX    TMP DP  RH WIND       PRES   REMARKS
JACKSON        FOG       72  70  93 CALM      29.98F VSB 1
LONDON         LGT RAIN  74  71  91 W3        29.99F
SOMERSET       CLOUDY    77  75  94 CALM      29.98F
MIDDLESBORO    SUNNY     89  69  52 SW7G17    29.99F HX  93
MONTICELLO     CLOUDY    84  73  69 W14G21    29.99F HX  90
$$





USA.gov is the U.S. government's official web portal to all federal, state and local government web resources and services.